Puerto Banus, Marbella

>

This is an optional block (switch it off / on) in the settings - file ($SITE['banners'] = false;)

You can display ads, any other important text or photo’s using text / html or PHP code.

You can place one or more at the top and or bottom and it can all be different for content / size .



Meteosat more information blitzortung!


Radar lluvias  rain snow radar


Visita nuestra red de sitios de meteo:

Documentation for the template used

MeteoibericaRed estaciones Meteorologicas

MeteoclimaticRed estaciones Meteorologicas



Viento Desde: 20-04-2018 10:00 Hasta: 21-04-2018 04:59 Advertencias para: Viento Nivel: Amarillo info button

Pagina Historial Weather Underground texto

Diario Resumen January 2, 2018 Unidades:  impérial    Métrico   Tanto
« Anterior Dia
Siguiente Dia »
Diario Semana Mensual Anual Personalizada
  Maxima: Minima: Media:
Temperatura: TemperatureC °F 10.0 °F 14.2 °F
Punto de rocío: DewpointC °F 1.8 °F 6.5 °F
Humedad: Humidity % 45 % 60 %
Velocidad del Viento: WindSpeedKMH mph 0.0 mph 7.6 mph
Ráfagas de viento: WindSpeedGustKMH mph - -
Viento:- - WSW
Pression baro: PressurehPa in 1029.7 in -
Précipitaciones: 0.0 in    
Historical Graphs
 
 
Datos de tabla para January 2, 2018
Tiempo Temperatura Punto de rocío Pression baro Viento Velocidad del Viento Ráfagas de viento Humedad Las precipitaciones Rate ( Hora )
TemperatureC °F DewpointC °F PressurehPa in Calm     Humidity % HourlyPrecipMM in
00:00 13.8 °F 3.5 °F 1032.7 in NNW 3.7 mph 3.7 mph 50 % 0.0 in
00:01 13.8 °F 3.8 °F 1032.7 in NNW 6.4 mph 6.4 mph 51 % 0.0 in
00:06 13.6 °F 4.7 °F 1032.7 in WSW 7.4 mph 7.4 mph 55 % 0.0 in
00:09 13.6 °F 4.7 °F 1032.7 in WSW 5.6 mph 5.6 mph 55 % 0.0 in
00:11 13.4 °F 4.3 °F 1032.7 in WSW 5.6 mph 5.6 mph 54 % 0.0 in
00:16 13.3 °F 3.1 °F 1032.7 in WSW 1.9 mph   50 % 0.0 in
00:17 13.3 °F 3.1 °F 1032.7 in Calm     50 % 0.0 in
00:21 13.3 °F 2.5 °F 1032.7 in Calm     48 % 0.0 in
00:24 13.3 °F 2.2 °F 1032.4 in WSW 1.9 mph   47 % 0.0 in
00:27 13.2 °F 1.8 °F 1032.4 in Calm     46 % 0.0 in
00:30 13.3 °F 2.2 °F 1032.7 in WSW 3.7 mph 3.7 mph 47 % 0.0 in
00:32 13.3 °F 2.5 °F 1032.4 in WSW 3.7 mph 3.7 mph 48 % 0.0 in
00:37 12.9 °F 2.2 °F 1032.4 in North 8.0 mph 8.0 mph 48 % 0.0 in
00:39 12.7 °F 2.2 °F 1032.4 in North 7.4 mph 7.4 mph 49 % 0.0 in
00:42 12.3 °F 2.2 °F 1032.4 in North 11.1 mph 11.1 mph 50 % 0.0 in
00:47 12.1 °F 2.3 °F 1032.4 in North 8.0 mph 8.0 mph 51 % 0.0 in
00:48 12.1 °F 2.3 °F 1032.4 in North 11.1 mph 11.1 mph 51 % 0.0 in
00:53 12.0 °F 2.4 °F 1032.4 in NNW 13.0 mph 13.0 mph 52 % 0.0 in
00:55 11.9 °F 2.3 °F 1032.4 in NNW 13.0 mph 13.0 mph 52 % 0.0 in
01:00 11.9 °F 2.3 °F 1032.1 in NNW 9.3 mph 9.3 mph 52 % 0.0 in
01:01 11.9 °F 2.4 °F 1032.4 in NNW 9.3 mph 9.3 mph 52 % 0.0 in
01:06 12.1 °F 2.5 °F 1032.4 in NW 7.4 mph 7.4 mph 52 % 0.0 in
01:11 12.2 °F 2.3 °F 1032.1 in NNW 5.6 mph 5.6 mph 51 % 0.0 in
01:16 12.2 °F 2.4 °F 1032.4 in NNW 8.0 mph 8.0 mph 51 % 0.0 in
01:18 12.2 °F 2.3 °F 1032.1 in North 11.1 mph 11.1 mph 51 % 0.0 in
01:22 12.0 °F 2.2 °F 1032.1 in NNW 13.0 mph 13.0 mph 51 % 0.0 in
01:23 12.0 °F 2.2 °F 1032.1 in NNW 13.0 mph 13.0 mph 51 % 0.0 in
01:28 12.1 °F 2.5 °F 1032.1 in NNW 9.3 mph 9.3 mph 52 % 0.0 in
01:29 12.1 °F 2.5 °F 1032.1 in NNW 7.4 mph 7.4 mph 52 % 0.0 in
01:31 12.0 °F 2.4 °F 1032.1 in NNW 11.1 mph 11.1 mph 52 % 0.0 in
01:34 12.1 °F 2.5 °F 1032.1 in NNW 9.3 mph 9.3 mph 52 % 0.0 in
01:39 12.1 °F 2.6 °F 1032.1 in NNW 7.4 mph 7.4 mph 52 % 0.0 in
01:41 12.1 °F 2.6 °F 1032.1 in NNW 7.4 mph 7.4 mph 52 % 0.0 in
01:46 12.1 °F 2.8 °F 1031.7 in NNW 9.3 mph 9.3 mph 53 % 0.0 in
01:47 12.1 °F 2.8 °F 1031.7 in NNW 9.3 mph 9.3 mph 53 % 0.0 in
01:50 12.1 °F 2.8 °F 1032.1 in NNW 5.6 mph 5.6 mph 53 % 0.0 in
01:52 12.2 °F 3.4 °F 1032.1 in WSW 5.6 mph 5.6 mph 55 % 0.0 in
01:56 12.3 °F 3.7 °F 1032.1 in WSW 3.7 mph 3.7 mph 56 % 0.0 in
01:58 12.2 °F 3.7 °F 1032.1 in WNW 5.6 mph 5.6 mph 56 % 0.0 in
02:03 12.2 °F 3.2 °F 1031.7 in NW 3.7 mph 3.7 mph 54 % 0.0 in
02:05 12.3 °F 3.2 °F 1031.7 in Calm     54 % 0.0 in
02:09 12.2 °F 3.2 °F 1031.7 in NW 3.7 mph 3.7 mph 54 % 0.0 in
02:10 12.2 °F 3.2 °F 1031.7 in NW 3.7 mph 3.7 mph 54 % 0.0 in
02:15 12.2 °F 3.4 °F 1031.7 in NW 3.7 mph 3.7 mph 55 % 0.0 in
02:16 12.2 °F 3.4 °F 1031.7 in NW 3.7 mph 3.7 mph 55 % 0.0 in
02:21 12.1 °F 3.8 °F 1031.7 in WSW 7.4 mph 7.4 mph 57 % 0.0 in
02:23 12.1 °F 3.6 °F 1031.7 in WSW 5.6 mph 5.6 mph 56 % 0.0 in
02:27 12.2 °F 3.7 °F 1031.7 in NW 8.0 mph 8.0 mph 56 % 0.0 in
02:30 12.4 °F 3.3 °F 1031.7 in WNW 11.1 mph 11.1 mph 54 % 0.0 in
02:33 12.7 °F 3.4 °F 1031.7 in WNW 6.4 mph 6.4 mph 53 % 0.0 in
02:37 12.9 °F 3.6 °F 1031.7 in NW 4.8 mph 4.8 mph 53 % 0.0 in
02:38 12.9 °F 3.6 °F 1031.7 in NW 5.6 mph 5.6 mph 53 % 0.0 in
02:43 12.2 °F 3.7 °F 1031.7 in North 5.6 mph 5.6 mph 56 % 0.0 in
02:48 11.3 °F 3.6 °F 1031.7 in NE 5.6 mph 6.0 mph 59 % 0.0 in
02:53 11.1 °F 3.6 °F 1031.7 in NE 5.6 mph 5.6 mph 60 % 0.0 in
02:54 11.0 °F 3.5 °F 1031.7 in NE 3.7 mph 3.7 mph 60 % 0.0 in
02:59 11.1 °F 3.4 °F 1031.7 in NNE 5.6 mph 5.6 mph 59 % 0.0 in
03:04 11.2 °F 3.7 °F 1031.7 in NNE 5.6 mph 5.6 mph 60 % 0.0 in
03:05 11.2 °F 3.7 °F 1031.7 in NNE 5.6 mph 5.6 mph 60 % 0.0 in
03:09 11.2 °F 3.7 °F 1032.1 in North 5.6 mph 5.6 mph 60 % 0.0 in
03:11 11.2 °F 3.7 °F 1032.1 in North 5.6 mph 5.6 mph 60 % 0.0 in
03:16 10.9 °F 3.5 °F 1032.1 in North 5.6 mph 5.6 mph 60 % 0.0 in
03:19 10.8 °F 3.6 °F 1032.1 in North 7.4 mph 7.4 mph 61 % 0.0 in
03:23 10.7 °F 3.5 °F 1032.1 in North 7.4 mph 7.4 mph 61 % 0.0 in
03:28 10.9 °F 3.5 °F 1032.1 in NNW 5.6 mph 5.6 mph 60 % 0.0 in
03:30 11.0 °F 3.5 °F 1032.1 in NNW 5.6 mph 6.0 mph 60 % 0.0 in
03:33 11.2 °F 3.7 °F 1032.1 in NNW 5.6 mph 5.6 mph 60 % 0.0 in
03:38 11.4 °F 3.9 °F 1032.1 in NNW 4.8 mph 4.8 mph 60 % 0.0 in
03:39 11.4 °F 3.9 °F 1032.1 in NNW 4.8 mph 4.8 mph 60 % 0.0 in
03:43 11.7 °F 4.2 °F 1032.1 in NNW 5.6 mph 5.6 mph 60 % 0.0 in
03:44 11.7 °F 4.2 °F 1032.1 in NNW 6.4 mph 6.4 mph 60 % 0.0 in
03:49 11.8 °F 4.1 °F 1032.1 in NNW 3.7 mph 3.7 mph 59 % 0.0 in
03:51 11.9 °F 3.9 °F 1032.1 in NNW 7.4 mph 7.4 mph 58 % 0.0 in
03:56 11.7 °F 3.9 °F 1032.1 in NNW 7.4 mph 7.4 mph 59 % 0.0 in
04:01 11.4 °F 3.7 °F 1031.7 in NNW 9.3 mph 9.3 mph 59 % 0.0 in
04:02 11.4 °F 3.7 °F 1031.7 in NNW 9.3 mph 9.3 mph 59 % 0.0 in
04:04 11.4 °F 3.7 °F 1031.7 in NNW 9.3 mph 9.3 mph 59 % 0.0 in
04:09 11.5 °F 3.8 °F 1031.7 in North 7.4 mph 7.4 mph 59 % 0.0 in
04:15 11.4 °F 3.7 °F 1031.7 in NNW 4.8 mph 9.7 mph 59 % 0.0 in
04:19 11.4 °F 3.7 °F 1031.7 in NNW 5.6 mph 5.6 mph 59 % 0.0 in
04:24 11.6 °F 3.6 °F 1031.7 in NW 9.3 mph 9.3 mph 58 % 0.0 in
04:29 11.2 °F 3.5 °F 1031.7 in NNW 13.0 mph 13.0 mph 59 % 0.0 in
04:33 11.1 °F 3.6 °F 1031.7 in NNW 8.0 mph 8.0 mph 60 % 0.0 in
04:38 11.1 °F 3.6 °F 1031.7 in NNW 7.4 mph 7.4 mph 60 % 0.0 in
04:42 11.0 °F 3.8 °F 1031.7 in North 8.0 mph 8.0 mph 61 % 0.0 in
04:43 11.0 °F 3.8 °F 1031.7 in North 9.7 mph 9.7 mph 61 % 0.0 in
04:48 10.6 °F 3.4 °F 1031.7 in North 9.3 mph 9.3 mph 61 % 0.0 in
04:49 10.6 °F 3.4 °F 1031.7 in NNW 11.3 mph 11.3 mph 61 % 0.0 in
04:50 10.6 °F 3.3 °F 1031.7 in NW 13.0 mph 13.0 mph 61 % 0.0 in
04:55 10.8 °F 3.6 °F 1031.7 in NNE 11.3 mph 11.3 mph 61 % 0.0 in
04:56 10.8 °F 3.6 °F 1031.7 in North 11.3 mph 11.3 mph 61 % 0.0 in
05:01 10.5 °F 3.7 °F 1031.7 in NNW 13.0 mph 13.0 mph 63 % 0.0 in
05:02 10.4 °F 3.7 °F 1031.7 in North 14.5 mph 14.5 mph 63 % 0.0 in
05:08 10.2 °F 3.9 °F 1031.4 in NNW 14.8 mph 14.8 mph 65 % 0.0 in
05:13 10.3 °F 3.8 °F 1031.4 in NNW 14.8 mph 14.8 mph 64 % 0.0 in
05:18 10.6 °F 4.0 °F 1031.4 in North 13.0 mph 13.0 mph 64 % 0.0 in
05:19 10.7 °F 3.9 °F 1031.4 in North 16.7 mph 16.7 mph 63 % 0.0 in
05:24 10.8 °F 4.0 °F 1031.4 in NNW 13.0 mph 13.0 mph 63 % 0.0 in
05:26 10.8 °F 4.1 °F 1031.4 in NNW 11.1 mph 11.1 mph 63 % 0.0 in
05:29 10.9 °F 3.9 °F 1031.4 in NNW 13.0 mph 13.0 mph 62 % 0.0 in
05:34 10.9 °F 3.7 °F 1031.4 in North 11.1 mph 11.1 mph 61 % 0.0 in
05:35 10.9 °F 3.7 °F 1031.0 in North 11.1 mph 11.1 mph 61 % 0.0 in
05:40 10.6 °F 3.8 °F 1031.4 in North 13.0 mph 13.0 mph 63 % 0.0 in
05:41 10.6 °F 3.8 °F 1031.4 in NNW 14.8 mph 14.8 mph 63 % 0.0 in
05:48 10.6 °F 3.8 °F 1031.0 in NNW 11.1 mph 11.1 mph 63 % 0.0 in
05:56 10.6 °F 3.8 °F 1031.0 in North 13.0 mph 13.0 mph 63 % 0.0 in
06:00 10.3 °F 3.8 °F 1031.0 in NNW 11.1 mph 11.1 mph 64 % 0.0 in
06:02 10.3 °F 3.8 °F 1031.0 in NNW 13.0 mph 13.0 mph 64 % 0.0 in
06:08 10.2 °F 3.7 °F 1031.0 in North 14.8 mph 14.8 mph 64 % 0.0 in
06:12 10.2 °F 3.7 °F 1031.0 in NNW 13.0 mph 13.0 mph 64 % 0.0 in
06:13 10.2 °F 3.9 °F 1031.0 in North 12.9 mph 12.9 mph 65 % 0.0 in
06:20 10.0 °F 3.7 °F 1031.0 in NNW 13.0 mph 13.0 mph 65 % 0.0 in
06:21 10.1 °F 3.8 °F 1031.0 in NNW 11.1 mph 11.1 mph 65 % 0.0 in
06:26 10.1 °F 3.8 °F 1031.0 in North 9.7 mph 9.7 mph 65 % 0.0 in
06:30 10.1 °F 3.8 °F 1031.0 in NNW 9.3 mph 9.3 mph 65 % 0.0 in
06:35 10.2 °F 3.9 °F 1031.0 in NNW 11.1 mph 11.1 mph 65 % 0.0 in
06:40 10.2 °F 3.9 °F 1031.0 in NNW 13.0 mph 13.0 mph 65 % 0.0 in
06:41 10.2 °F 3.9 °F 1031.0 in NNW 13.0 mph 13.0 mph 65 % 0.0 in
06:43 10.3 °F 4.0 °F 1031.0 in North 7.4 mph 7.4 mph 65 % 0.0 in
06:48 10.2 °F 3.9 °F 1031.0 in NNW 11.3 mph 11.3 mph 65 % 0.0 in
06:53 10.0 °F 3.7 °F 1031.0 in NNW 11.1 mph 11.1 mph 65 % 0.0 in
06:58 10.0 °F 3.7 °F 1031.0 in North 8.0 mph 8.0 mph 65 % 0.0 in
06:59 10.1 °F 3.8 °F 1031.0 in North 12.9 mph 12.9 mph 65 % 0.0 in
07:03 10.2 °F 3.9 °F 1031.0 in North 11.3 mph 11.3 mph 65 % 0.0 in
07:08 10.3 °F 3.8 °F 1031.4 in NNW 11.1 mph 11.1 mph 64 % 0.0 in
07:09 10.4 °F 3.9 °F 1031.0 in North 9.7 mph 9.7 mph 64 % 0.0 in
07:14 10.6 °F 3.8 °F 1031.4 in NNE 11.3 mph 11.3 mph 63 % 0.0 in
07:17 10.5 °F 3.7 °F 1031.4 in NNW 18.5 mph 18.5 mph 63 % 0.0 in
07:19 10.3 °F 3.8 °F 1031.4 in NW 11.1 mph 11.1 mph 64 % 0.0 in
07:24 10.5 °F 3.9 °F 1031.4 in NNW 18.5 mph 18.5 mph 64 % 0.0 in
07:27 10.5 °F 3.9 °F 1031.4 in NNW 11.1 mph 11.1 mph 64 % 0.0 in
07:30 10.6 °F 3.8 °F 1031.4 in NNW 11.1 mph 11.1 mph 63 % 0.0 in
07:35 10.8 °F 4.0 °F 1031.7 in North 11.3 mph 11.3 mph 63 % 0.0 in
07:40 10.6 °F 3.8 °F 1031.7 in NNW 13.0 mph 13.0 mph 63 % 0.0 in
07:41 10.6 °F 3.8 °F 1031.7 in NNW 13.0 mph 13.0 mph 63 % 0.0 in
07:42 10.6 °F 3.8 °F 1031.7 in NNW 13.0 mph 13.0 mph 63 % 0.0 in
07:46 10.4 °F 3.9 °F 1031.7 in NNW 14.8 mph 14.8 mph 64 % 0.0 in
07:51 10.2 °F 3.7 °F 1031.7 in NNW 14.8 mph 14.8 mph 64 % 0.0 in
07:56 10.3 °F 3.8 °F 1031.7 in NNW 11.1 mph 11.1 mph 64 % 0.0 in
07:59 10.4 °F 3.9 °F 1031.7 in NNW 11.1 mph 11.1 mph 64 % 0.0 in
08:01 10.6 °F 3.8 °F 1031.7 in NNW 11.1 mph 11.1 mph 63 % 0.0 in
08:06 10.7 °F 3.7 °F 1031.7 in North 12.9 mph 12.9 mph 62 % 0.0 in
08:07 10.7 °F 3.9 °F 1031.7 in North 14.5 mph 14.5 mph 63 % 0.0 in
08:10 10.6 °F 3.8 °F 1031.7 in NNW 13.0 mph 13.0 mph 63 % 0.0 in
08:13 10.6 °F 3.6 °F 1032.1 in North 11.3 mph 11.3 mph 62 % 0.0 in
08:15 10.6 °F 3.6 °F 1032.1 in NNW 11.1 mph 11.1 mph 62 % 0.0 in
08:20 10.7 °F 3.7 °F 1032.1 in NNW 9.3 mph 9.3 mph 62 % 0.0 in
08:22 10.7 °F 3.7 °F 1032.1 in NNW 11.1 mph 11.1 mph 62 % 0.0 in
08:26 10.7 °F 3.7 °F 1032.1 in North 11.1 mph 11.1 mph 62 % 0.0 in
08:31 10.4 °F 3.4 °F 1032.1 in NNW 7.4 mph 7.4 mph 62 % 0.0 in
08:33 10.5 °F 3.5 °F 1032.1 in North 11.3 mph 11.3 mph 62 % 0.0 in
08:38 10.7 °F 3.4 °F 1032.1 in North 9.3 mph 9.3 mph 61 % 0.0 in
08:40 10.7 °F 3.4 °F 1032.1 in North 18.5 mph 18.5 mph 61 % 0.0 in
08:44 10.6 °F 3.3 °F 1032.1 in NNW 11.1 mph 11.1 mph 61 % 0.0 in
08:48 10.7 °F 3.2 °F 1032.1 in NNW 11.1 mph 11.1 mph 60 % 0.0 in
08:49 10.7 °F 3.3 °F 1032.1 in North 14.5 mph 14.5 mph 60 % 0.0 in
08:56 10.7 °F 3.3 °F 1032.1 in NNW 11.1 mph 11.1 mph 60 % 0.0 in
09:01 10.7 °F 3.3 °F 1032.1 in North 11.3 mph 11.3 mph 60 % 0.0 in
09:02 10.7 °F 3.5 °F 1032.1 in NNW 13.0 mph 13.0 mph 61 % 0.0 in
09:07 10.9 °F 3.2 °F 1032.1 in NNW 11.1 mph 11.1 mph 59 % 0.0 in
09:08 11.1 °F 3.3 °F 1032.1 in NNW 11.1 mph 11.1 mph 59 % 0.0 in
09:10 11.2 °F 3.2 °F 1032.1 in NNW 7.4 mph 7.4 mph 58 % 0.0 in
09:14 11.3 °F 3.3 °F 1032.1 in North 11.1 mph 11.1 mph 58 % 0.0 in
09:19 11.4 °F 3.4 °F 1032.1 in North 5.6 mph 5.6 mph 58 % 0.0 in
09:22 11.4 °F 3.4 °F 1032.4 in North 7.4 mph 7.4 mph 58 % 0.0 in
09:25 11.5 °F 3.5 °F 1032.4 in North 5.6 mph 5.6 mph 58 % 0.0 in
09:30 11.7 °F 3.2 °F 1032.1 in WNW 9.3 mph 9.3 mph 56 % 0.0 in
09:35 11.9 °F 3.7 °F 1032.4 in NE 5.6 mph 5.6 mph 57 % 0.0 in
09:37 11.9 °F 3.7 °F 1032.1 in WNW 5.6 mph 5.6 mph 57 % 0.0 in
09:42 12.2 °F 3.7 °F 1032.4 in NNW 5.6 mph 5.6 mph 56 % 0.0 in
09:43 12.2 °F 3.7 °F 1032.4 in NNW 5.6 mph 5.6 mph 56 % 0.0 in
09:48 12.4 °F 3.7 °F 1032.4 in NNW 3.7 mph 3.7 mph 55 % 0.0 in
09:53 12.7 °F 3.9 °F 1032.4 in Calm     55 % 0.0 in
09:55 12.8 °F 4.2 °F 1032.1 in Calm     56 % 0.0 in
10:01 13.1 °F 4.4 °F 1032.4 in NE 3.7 mph 3.7 mph 56 % 0.0 in
10:06 13.2 °F 4.1 °F 1032.4 in North 3.7 mph 3.7 mph 54 % 0.0 in
10:07 13.2 °F 4.1 °F 1032.4 in North 7.4 mph 7.4 mph 54 % 0.0 in
10:08 13.3 °F 4.2 °F 1032.4 in NNW 5.6 mph 5.6 mph 54 % 0.0 in
10:12 13.4 °F 4.1 °F 1032.4 in NNE 8.0 mph 8.0 mph 53 % 0.0 in
10:18 13.8 °F 4.3 °F 1032.4 in NNE 11.3 mph 11.3 mph 53 % 0.0 in
10:19 13.8 °F 4.1 °F 1032.4 in North 13.0 mph 13.0 mph 52 % 0.0 in
10:24 13.9 °F 3.6 °F 1032.4 in North 9.7 mph 9.7 mph 50 % 0.0 in
10:25 13.9 °F 3.6 °F 1032.4 in NNW 9.3 mph 9.3 mph 50 % 0.0 in
10:27 14.0 °F 3.7 °F 1032.4 in NNW 7.4 mph 7.4 mph 50 % 0.0 in
10:31 14.3 °F 4.0 °F 1032.4 in North 7.4 mph 7.4 mph 50 % 0.0 in
10:36 14.4 °F 2.7 °F 1032.4 in North 11.1 mph 11.1 mph 45 % 0.0 in
10:41 14.8 °F 4.7 °F 1032.4 in West 5.6 mph 5.6 mph 51 % 0.0 in
10:42 14.8 °F 4.7 °F 1032.4 in West 5.6 mph 5.6 mph 51 % 0.0 in
10:44 14.9 °F 5.7 °F 1032.4 in West 5.6 mph 5.6 mph 54 % 0.0 in
10:49 15.0 °F 6.3 °F 1032.4 in West 3.7 mph 3.7 mph 56 % 0.0 in
10:55 15.2 °F 6.9 °F 1032.4 in WSW 3.7 mph 3.7 mph 58 % 0.0 in
11:00 15.2 °F 7.7 °F 1032.4 in SW 7.4 mph 7.4 mph 61 % 0.0 in
11:04 15.2 °F 7.9 °F 1032.7 in SW 5.6 mph 5.6 mph 62 % 0.0 in
11:05 15.1 °F 7.9 °F 1032.7 in SW 5.6 mph 5.6 mph 62 % 0.0 in
11:09 15.0 °F 8.0 °F 1032.7 in SW 6.4 mph 6.4 mph 63 % 0.0 in
11:14 14.8 °F 7.8 °F 1032.4 in SW 7.4 mph 7.4 mph 63 % 0.0 in
11:15 14.8 °F 7.8 °F 1032.4 in SW 7.4 mph 7.4 mph 63 % 0.0 in
11:20 14.7 °F 7.7 °F 1032.4 in SW 9.3 mph 9.3 mph 63 % 0.0 in
11:25 14.6 °F 7.3 °F 1032.7 in WSW 7.4 mph 7.4 mph 62 % 0.0 in
11:26 14.6 °F 7.1 °F 1032.7 in WSW 8.0 mph 8.0 mph 61 % 0.0 in
11:28 14.6 °F 6.9 °F 1032.7 in WSW 8.0 mph 8.0 mph 60 % 0.0 in
11:32 14.7 °F 7.2 °F 1032.4 in WSW 6.4 mph 6.4 mph 61 % 0.0 in
11:37 14.8 °F 8.3 °F 1032.7 in SW 9.3 mph 9.3 mph 65 % 0.0 in
11:38 14.8 °F 8.3 °F 1032.7 in SW 8.0 mph 8.0 mph 65 % 0.0 in
11:43 14.8 °F 8.6 °F 1032.7 in SW 9.3 mph 9.3 mph 66 % 0.0 in
11:46 14.9 °F 8.8 °F 1032.7 in SW 7.4 mph 7.4 mph 67 % 0.0 in
11:49 14.9 °F 8.9 °F 1032.4 in SW 9.3 mph 9.3 mph 67 % 0.0 in
11:54 15.1 °F 9.2 °F 1032.4 in SW 9.3 mph 9.3 mph 68 % 0.0 in
11:58 15.1 °F 9.2 °F 1032.4 in WSW 9.3 mph 9.3 mph 68 % 0.0 in
11:59 15.0 °F 9.1 °F 1032.4 in WSW 5.6 mph 5.6 mph 68 % 0.0 in
12:04 15.1 °F 8.8 °F 1032.4 in SW 5.6 mph 5.6 mph 66 % 0.0 in
12:08 15.1 °F 8.8 °F 1032.4 in SW 6.4 mph 6.4 mph 66 % 0.0 in
12:13 15.1 °F 8.8 °F 1032.4 in SW 5.6 mph 5.6 mph 66 % 0.0 in
12:16 15.2 °F 8.8 °F 1032.4 in SW 3.2 mph 3.2 mph 66 % 0.0 in
12:21 15.4 °F 9.1 °F 1032.1 in SW 5.6 mph 5.6 mph 66 % 0.0 in
12:26 15.6 °F 9.2 °F 1032.1 in SW 5.6 mph 5.6 mph 66 % 0.0 in
12:29 15.7 °F 9.8 °F 1032.1 in SW 5.6 mph 5.6 mph 68 % 0.0 in
12:33 15.7 °F 9.8 °F 1032.1 in SW 5.6 mph 5.6 mph 68 % 0.0 in
12:38 15.7 °F 9.8 °F 1032.1 in SW 3.7 mph 3.7 mph 68 % 0.0 in
12:39 15.7 °F 9.8 °F 1031.7 in SW 5.6 mph 5.6 mph 68 % 0.0 in
12:40 15.8 °F 10.1 °F 1031.7 in SW 5.6 mph 5.6 mph 69 % 0.0 in
12:45 15.8 °F 9.9 °F 1031.7 in SW 3.7 mph 3.7 mph 68 % 0.0 in
12:46 15.9 °F 10.0 °F 1031.7 in SW 1.9 mph   68 % 0.0 in
12:53 16.1 °F 10.2 °F 1031.7 in Calm     68 % 0.0 in
12:59 16.2 °F 10.3 °F 1031.4 in SW 5.6 mph 5.6 mph 68 % 0.0 in
13:02 16.2 °F 10.3 °F 1031.4 in SW 3.7 mph 3.7 mph 68 % 0.0 in
13:04 16.2 °F 10.3 °F 1031.4 in SW 3.7 mph 3.7 mph 68 % 0.0 in
13:09 16.2 °F 10.3 °F 1031.4 in SW 3.7 mph 3.7 mph 68 % 0.0 in
13:10 16.2 °F 10.3 °F 1031.4 in SW 3.7 mph 3.7 mph 68 % 0.0 in
13:15 16.3 °F 10.6 °F 1031.0 in Calm     69 % 0.0 in
13:20 16.2 °F 10.5 °F 1031.0 in Calm     69 % 0.0 in
13:23 16.2 °F 10.3 °F 1031.0 in Calm     68 % 0.0 in
13:26 16.2 °F 10.4 °F 1031.0 in Calm     69 % 0.0 in
13:30 16.2 °F 10.3 °F 1031.0 in Calm     68 % 0.0 in
13:35 16.2 °F 10.3 °F 1030.7 in Calm     68 % 0.0 in
13:39 16.2 °F 10.3 °F 1030.7 in Calm     68 % 0.0 in
13:41 16.3 °F 10.3 °F 1030.7 in Calm     68 % 0.0 in
13:44 16.4 °F 10.3 °F 1030.7 in Calm     67 % 0.0 in
13:46 16.4 °F 9.6 °F 1030.7 in Calm     64 % 0.0 in
13:51 16.4 °F 9.8 °F 1030.7 in Calm     65 % 0.0 in
13:53 16.4 °F 9.8 °F 1030.7 in Calm     65 % 0.0 in
13:58 16.2 °F 10.3 °F 1030.4 in SW 3.7 mph 3.7 mph 68 % 0.0 in
14:03 16.4 °F 10.9 °F 1030.4 in SW 1.9 mph 1.9 mph 70 % 0.0 in
14:08 16.7 °F 10.9 °F 1030.4 in Calm     69 % 0.0 in
14:13 16.8 °F 11.1 °F 1030.0 in Calm     69 % 0.0 in
14:14 16.8 °F 11.1 °F 1030.0 in Calm     69 % 0.0 in
14:25 16.9 °F 10.6 °F 1030.0 in SW 1.9 mph   66 % 0.0 in
14:26 17.0 °F 10.6 °F 1030.0 in SW 1.9 mph 1.9 mph 66 % 0.0 in
14:31 17.0 °F 9.7 °F 1030.0 in SW 5.6 mph 5.6 mph 62 % 0.0 in
14:32 17.1 °F 9.9 °F 1030.0 in SW 5.6 mph 5.6 mph 63 % 0.0 in
14:35 17.1 °F 10.2 °F 1030.0 in SW 3.7 mph 3.7 mph 64 % 0.0 in
14:44 17.2 °F 11.1 °F 1030.0 in SW 3.7 mph 3.7 mph 67 % 0.0 in
14:46 17.2 °F 11.3 °F 1029.7 in SW 3.7 mph 3.7 mph 68 % 0.0 in
14:51 16.9 °F 11.0 °F 1029.7 in SW 3.7 mph 3.7 mph 68 % 0.0 in
14:53 16.7 °F 10.7 °F 1029.7 in SW 3.7 mph 3.7 mph 68 % 0.0 in
14:57 16.3 °F 10.4 °F 1029.7 in Calm     68 % 0.0 in
15:02 16.3 °F 11.0 °F 1029.7 in SW 1.9 mph 1.9 mph 71 % 0.0 in
15:07 16.3 °F 10.6 °F 1029.7 in SW 1.9 mph 1.9 mph 69 % 0.0 in
15:10 16.3 °F 11.1 °F 1029.7 in SW 3.7 mph 3.7 mph 71 % 0.0 in
15:18 16.3 °F 11.3 °F 1029.7 in SW 3.7 mph 3.7 mph 72 % 0.0 in
15:20 16.2 °F 10.7 °F 1029.7 in SW 3.7 mph 3.7 mph 70 % 0.0 in
15:23 16.2 °F 11.1 °F 1029.7 in SW 3.7 mph 3.7 mph 72 % 0.0 in
15:33 16.0 °F 10.9 °F 1029.7 in Calm     72 % 0.0 in
15:34 16.0 °F 10.9 °F 1029.7 in Calm     72 % 0.0 in
15:35 16.1 °F 11.0 °F 1029.7 in Calm     72 % 0.0 in
15:40 15.9 °F 9.1 °F 1029.7 in Calm   0.2 mph 64 % 0.0 in
15:43 15.9 °F 8.1 °F 1029.7 in Calm     60 % 0.0 in
15:48 16.2 °F 8.4 °F 1029.7 in Calm     60 % 0.0 in
15:51 16.3 °F 8.1 °F 1029.7 in SW 1.9 mph 1.9 mph 58 % 0.0 in
15:54 16.4 °F 7.9 °F 1029.7 in Calm     57 % 0.0 in
15:59 16.7 °F 6.8 °F 1029.7 in Calm     52 % 0.0 in
16:00 16.8 °F 6.8 °F 1029.7 in Calm     52 % 0.0 in
16:05 17.0 °F 7.6 °F 1029.7 in Calm     54 % 0.0 in
16:10 17.1 °F 9.7 °F 1029.7 in SW 3.7 mph   62 % 0.0 in
16:11 17.2 °F 10.1 °F 1029.7 in Calm     63 % 0.0 in
16:16 17.1 °F 9.7 °F 1029.7 in SW 3.7 mph 3.7 mph 62 % 0.0 in
16:18 16.9 °F 9.4 °F 1029.7 in SW 1.9 mph 1.9 mph 61 % 0.0 in
16:20 16.9 °F 9.4 °F 1029.7 in SW 1.9 mph 1.9 mph 61 % 0.0 in
16:23 16.9 °F 9.6 °F 1029.7 in SW 3.2 mph 3.2 mph 62 % 0.0 in
16:28 16.8 °F 9.5 °F 1029.7 in SW 1.9 mph   62 % 0.0 in
16:33 17.0 °F 8.4 °F 1029.7 in SW 1.9 mph 1.9 mph 57 % 0.0 in
16:36 17.2 °F 8.1 °F 1029.7 in Calm     55 % 0.0 in
16:41 16.9 °F 7.0 °F 1029.7 in SSW 3.7 mph 3.7 mph 52 % 0.0 in
16:44 17.0 °F 7.9 °F 1029.7 in SSW 1.6 mph 1.6 mph 55 % 0.0 in
16:49 16.8 °F 6.6 °F 1029.7 in SSW 5.6 mph 5.6 mph 51 % 0.0 in
16:50 16.8 °F 6.8 °F 1029.7 in SSW 3.7 mph 3.7 mph 52 % 0.0 in
16:51 16.7 °F 6.8 °F 1029.7 in SSW 1.9 mph   52 % 0.0 in
16:56 16.8 °F 7.9 °F 1029.7 in SSW 1.9 mph 1.9 mph 56 % 0.0 in
16:58 16.7 °F 7.3 °F 1029.7 in SSW 1.9 mph   54 % 0.0 in
17:00 16.7 °F 7.1 °F 1029.7 in Calm   1.6 mph 53 % 0.0 in
17:05 17.0 °F 9.4 °F 1030.0 in Calm     61 % 0.0 in
17:06 17.0 °F 9.4 °F 1030.0 in SSW 5.6 mph 5.6 mph 61 % 0.0 in
17:07 17.0 °F 9.4 °F 1030.0 in SSW 5.6 mph 5.6 mph 61 % 0.0 in
17:11 16.7 °F 7.6 °F 1030.0 in Calm     55 % 0.0 in
17:13 16.7 °F 7.6 °F 1029.7 in Calm     55 % 0.0 in
17:17 16.9 °F 8.1 °F 1029.7 in Calm     56 % 0.0 in
17:22 17.0 °F 7.3 °F 1030.0 in Calm     53 % 0.0 in
17:23 17.0 °F 7.1 °F 1029.7 in Calm     52 % 0.0 in
17:28 17.1 °F 6.0 °F 1029.7 in East 1.6 mph 1.6 mph 48 % 0.0 in
17:29 17.1 °F 6.0 °F 1029.7 in East 3.7 mph 3.7 mph 48 % 0.0 in
17:34 17.3 °F 7.1 °F 1029.7 in Calm     51 % 0.0 in
17:36 17.3 °F 7.9 °F 1029.7 in Calm     54 % 0.0 in
17:41 17.5 °F 7.8 °F 1029.7 in East 3.7 mph 3.7 mph 53 % 0.0 in
17:43 17.5 °F 6.9 °F 1029.7 in East 3.7 mph 3.7 mph 50 % 0.0 in
17:47 17.6 °F 7.3 °F 1029.7 in SE 3.7 mph 3.7 mph 51 % 0.0 in
17:52 17.6 °F 7.8 °F 1029.7 in South 5.6 mph 5.6 mph 53 % 0.0 in
17:53 17.6 °F 7.8 °F 1029.7 in South 5.6 mph 5.6 mph 53 % 0.0 in
17:55 17.6 °F 8.1 °F 1029.7 in SSW 5.6 mph 5.6 mph 54 % 0.0 in
17:58 17.5 °F 8.6 °F 1029.7 in SSW 5.6 mph 5.6 mph 56 % 0.0 in
18:03 17.3 °F 8.9 °F 1029.7 in WSW 6.4 mph 6.4 mph 58 % 0.0 in
18:05 17.2 °F 8.3 °F 1029.7 in WSW 5.6 mph 5.6 mph 56 % 0.0 in
18:08 17.1 °F 7.9 °F 1030.0 in Calm     55 % 0.0 in
18:10 16.9 °F 9.1 °F 1030.0 in South 5.6 mph 5.6 mph 60 % 0.0 in
18:17 16.7 °F 8.7 °F 1030.0 in WSW 5.6 mph 5.6 mph 59 % 0.0 in
18:22 16.6 °F 9.0 °F 1030.0 in WSW 3.7 mph 3.7 mph 61 % 0.0 in
18:23 16.5 °F 8.9 °F 1030.0 in WSW 3.7 mph 3.7 mph 61 % 0.0 in
18:28 16.3 °F 9.9 °F 1030.0 in WSW 3.7 mph 3.7 mph 66 % 0.0 in
18:33 16.0 °F 9.2 °F 1030.0 in Calm     64 % 0.0 in
18:34 16.0 °F 9.2 °F 1030.0 in Calm     64 % 0.0 in
18:35 15.9 °F 9.6 °F 1030.4 in SSE 3.2 mph 3.2 mph 66 % 0.0 in
18:40 15.9 °F 9.6 °F 1030.0 in Calm     66 % 0.0 in
18:46 15.8 °F 9.0 °F 1030.0 in Calm     64 % 0.0 in
18:47 15.8 °F 9.0 °F 1030.0 in Calm     64 % 0.0 in
18:51 15.8 °F 8.5 °F 1030.0 in Calm     62 % 0.0 in
18:54 15.8 °F 8.5 °F 1030.4 in Calm     62 % 0.0 in
18:59 15.7 °F 8.2 °F 1030.0 in Calm     61 % 0.0 in
19:02 15.7 °F 7.9 °F 1030.0 in Calm     60 % 0.0 in
19:07 15.7 °F 7.7 °F 1030.0 in NW 5.6 mph 5.6 mph 59 % 0.0 in
19:10 15.8 °F 7.5 °F 1030.4 in NW 9.3 mph 9.3 mph 58 % 0.0 in
19:15 15.8 °F 7.3 °F 1030.0 in NW 13.0 mph 13.0 mph 57 % 0.0 in
19:16 15.8 °F 7.1 °F 1030.0 in NW 14.5 mph 14.5 mph 56 % 0.0 in
19:21 16.0 °F 6.9 °F 1030.0 in NW 9.3 mph 9.3 mph 55 % 0.0 in
19:26 16.3 °F 6.7 °F 1030.0 in WNW 9.3 mph 9.3 mph 53 % 0.0 in
19:27 16.4 °F 6.5 °F 1030.0 in WNW 6.4 mph 6.4 mph 52 % 0.0 in
19:29 16.5 °F 6.1 °F 1030.0 in WNW 8.0 mph 8.0 mph 50 % 0.0 in
19:34 16.8 °F 6.8 °F 1030.0 in West 7.4 mph 7.4 mph 52 % 0.0 in
19:35 16.8 °F 7.2 °F 1030.0 in WNW 7.4 mph 7.4 mph 53 % 0.0 in
19:38 16.9 °F 7.6 °F 1030.0 in WNW 8.0 mph 8.0 mph 54 % 0.0 in
19:41 17.2 °F 8.1 °F 1030.0 in NNW 18.5 mph 18.5 mph 55 % 0.0 in
19:45 17.5 °F 8.4 °F 1029.7 in NNW 12.9 mph 20.9 mph 55 % 0.0 in
19:46 17.9 °F 9.0 °F 1029.7 in NNE 24.1 mph 24.1 mph 56 % 0.0 in
19:52 19.0 °F 9.5 °F 1030.0 in NE 24.1 mph 24.1 mph 54 % 0.0 in
19:57 18.8 °F 9.1 °F 1030.0 in NE 24.1 mph 24.1 mph 53 % 0.0 in
19:58 18.8 °F 9.1 °F 1030.0 in NE 25.9 mph 25.9 mph 53 % 0.0 in
20:03 18.2 °F 8.2 °F 1030.0 in ENE 22.2 mph 22.2 mph 52 % 0.0 in
20:09 18.1 °F 8.9 °F 1030.0 in North 29.6 mph 29.6 mph 55 % 0.0 in
20:10 18.3 °F 9.1 °F 1030.0 in ENE 31.5 mph 31.5 mph 55 % 0.0 in
20:15 19.4 °F 9.3 °F 1030.0 in NNE 31.5 mph 31.5 mph 52 % 0.0 in
20:17 19.7 °F 9.8 °F 1030.0 in NNW 27.8 mph 27.8 mph 53 % 0.0 in
20:22 20.2 °F 10.0 °F 1029.7 in NNW 29.6 mph 29.6 mph 52 % 0.0 in
20:23 20.2 °F 9.8 °F 1029.7 in NNW 24.1 mph 24.1 mph 51 % 0.0 in
20:28 19.2 °F 9.7 °F 1030.0 in NNE 18.5 mph 18.5 mph 54 % 0.0 in
20:33 18.4 °F 8.9 °F 1030.0 in NE 19.3 mph 19.3 mph 54 % 0.0 in
20:37 17.7 °F 8.0 °F 1030.0 in NE 18.5 mph 18.5 mph 53 % 0.0 in
20:43 17.0 °F 7.9 °F 1030.0 in NNE 18.5 mph 18.5 mph 55 % 0.0 in
20:49 16.8 °F 8.2 °F 1029.7 in North 13.0 mph 13.0 mph 57 % 0.0 in
20:54 16.8 °F 8.3 °F 1030.0 in NNE 14.8 mph 14.8 mph 57 % 0.0 in
20:59 16.8 °F 8.3 °F 1029.7 in ENE 11.1 mph 11.1 mph 57 % 0.0 in
21:02 17.2 °F 9.1 °F 1030.0 in NE 18.5 mph 18.5 mph 59 % 0.0 in
21:04 17.3 °F 8.9 °F 1030.0 in ENE 16.7 mph 16.7 mph 58 % 0.0 in
21:15 17.3 °F 8.7 °F 1030.0 in NE 4.8 mph 12.9 mph 57 % 0.0 in
21:16 17.3 °F 8.7 °F 1029.7 in NE 11.1 mph 11.1 mph 57 % 0.0 in
21:21 16.9 °F 9.1 °F 1029.7 in North 11.1 mph 11.1 mph 60 % 0.0 in
21:22 16.9 °F 9.1 °F 1029.7 in North 14.8 mph 14.8 mph 60 % 0.0 in
21:24 16.8 °F 8.8 °F 1029.7 in NE 11.3 mph 11.3 mph 59 % 0.0 in
21:27 17.1 °F 8.8 °F 1029.7 in NE 14.8 mph 14.8 mph 58 % 0.0 in
21:35 17.7 °F 9.3 °F 1029.7 in ENE 13.0 mph 13.0 mph 58 % 0.0 in
21:40 17.4 °F 9.8 °F 1029.7 in Calm     61 % 0.0 in
21:41 17.3 °F 9.7 °F 1029.7 in Calm     61 % 0.0 in
21:46 17.2 °F 9.9 °F 1029.7 in Calm     62 % 0.0 in
21:47 17.2 °F 9.9 °F 1029.7 in Calm     62 % 0.0 in
21:52 17.3 °F 10.0 °F 1029.7 in SE 5.6 mph 5.8 mph 62 % 0.0 in
21:57 17.6 °F 9.9 °F 1029.7 in South 7.4 mph 7.4 mph 61 % 0.0 in
22:03 17.9 °F 11.1 °F 1029.7 in SSW 22.2 mph 22.2 mph 64 % 0.0 in
22:08 17.7 °F 11.4 °F 1030.0 in SSW 24.1 mph 24.1 mph 67 % 0.0 in
22:09 17.6 °F 11.8 °F 1030.0 in South 24.1 mph 24.1 mph 69 % 0.0 in
22:15 17.0 °F 11.7 °F 1029.7 in South 22.2 mph 22.2 mph 71 % 0.0 in
22:19 16.8 °F 11.7 °F 1030.0 in South 22.2 mph 22.2 mph 72 % 0.0 in
22:24 16.7 °F 11.8 °F 1030.0 in South 20.9 mph 20.9 mph 73 % 0.0 in
22:25 16.7 °F 11.7 °F 1030.0 in South 22.2 mph 22.2 mph 72 % 0.0 in
22:26 16.8 °F 11.7 °F 1030.0 in South 20.4 mph 20.4 mph 72 % 0.0 in
22:31 16.9 °F 12.0 °F 1030.0 in South 14.8 mph 14.8 mph 73 % 0.0 in
22:33 16.8 °F 11.9 °F 1030.0 in South 11.1 mph 11.1 mph 73 % 0.0 in
22:36 16.7 °F 11.8 °F 1030.0 in South 5.6 mph 5.6 mph 73 % 0.0 in
22:41 16.7 °F 12.1 °F 1030.0 in South 7.4 mph 7.4 mph 74 % 0.0 in
22:43 16.7 °F 12.1 °F 1030.0 in Calm     74 % 0.0 in
22:49 16.5 °F 11.4 °F 1030.4 in ESE 3.7 mph 3.7 mph 72 % 0.0 in
22:54 16.4 °F 11.3 °F 1030.0 in Calm     72 % 0.0 in
22:59 16.4 °F 11.6 °F 1030.0 in Calm     73 % 0.0 in
23:01 16.4 °F 11.6 °F 1030.0 in Calm     73 % 0.0 in
23:06 16.4 °F 11.4 °F 1030.0 in East 5.6 mph 5.6 mph 72 % 0.0 in
23:07 16.4 °F 11.4 °F 1030.4 in North 8.0 mph 8.0 mph 72 % 0.0 in
23:09 16.3 °F 10.8 °F 1030.4 in North 9.3 mph 9.3 mph 70 % 0.0 in
23:17 15.8 °F 10.2 °F 1030.4 in NNE 9.3 mph 9.3 mph 69 % 0.0 in
23:22 15.7 °F 10.0 °F 1030.4 in NNE 5.6 mph 5.6 mph 69 % 0.0 in
23:28 15.7 °F 9.8 °F 1030.4 in North 5.6 mph 5.6 mph 68 % 0.0 in
23:33 15.8 °F 9.7 °F 1030.4 in NNE 5.6 mph 5.6 mph 67 % 0.0 in
23:36 15.9 °F 9.6 °F 1030.4 in NNE 7.4 mph 7.7 mph 66 % 0.0 in
23:39 16.0 °F 9.7 °F 1030.0 in North 5.6 mph 5.6 mph 66 % 0.0 in
23:43 16.0 °F 9.4 °F 1030.4 in NNE 5.6 mph 5.6 mph 65 % 0.0 in
23:46 16.1 °F 9.5 °F 1030.4 in North 8.0 mph 8.0 mph 65 % 0.0 in
23:49 16.0 °F 9.4 °F 1030.4 in NNW 5.6 mph 5.6 mph 65 % 0.0 in
23:52 15.9 °F 9.4 °F 1030.0 in NNW 5.6 mph 5.6 mph 65 % 0.0 in
23:57 16.1 °F 9.3 °F 1030.4 in NNW 9.3 mph 9.3 mph 64 % 0.0 in
Puerto Banus, Marbella
Elogios de Weather Underground - 2.75 mb

Guión original por  Jim McMurry - jmcmurry@mwt.net Adaptado para la plantilla por  Wim van der Kuil - Leuven-Template.eu

Usted encontrará nuestra información del tiempo también en:

Weather Underground

Iberian Peninsula Weather Network